Tracking 23762 objects as of 19-Oct-2021
HD Live streaming from Space Station
objects crossing your sky now

ONEWEB-0351

Track ONEWEB-0351 now!
10-day predictions
ONEWEB-0351 is classified as:


NORAD ID: 49215
Int'l Code: 2021-083AF
Perigee: 592.9 km
Apogee: 619.9 km
Inclination: 87.2 °
Period: 96.7 minutes
Semi major axis: 6977 km
RCS: Unknown
Launch date: September 14, 2021
Source: United Kingdom (UK)
Launch site: TYURATAM MISSILE AND SPACE COMPLEX (TTMTR)
aabbcc
Your satellite tracking list
Your tracking list is empty




NASA's NSSDC Master Catalog

Two Line Element Set (TLE):
1 49215U 21083AF  21291.91668981  .00064409  00000-0  66736-2 0  9991
2 49215  87.1971 316.1060 0019321 160.9716  16.1081 14.89576433  3650
Source of the keplerian elements: AFSPC